Location: Boda
(47.1872°N, 9.5454°E)
Time: 16:33:11
(UTC+00:00)

USA 276 - Pass Details

Date: 14 May 2021
Orbit: 383 x 389 km, 50.0° (Epoch: 01 June)

Event Time Altitude Azimuth Distance (km) Brightness Sun altitude
Exits shadow 00:20:12 22° 77° (ENE) 904 4.2 -22.7°
Drops below altitude 10° 00:21:30 10° 73° (ENE) 1,416 5.3 -22.7°
Sets 00:23:34 0° 70° (ENE) 2,271 6.5 -22.6°
